Menominee, MI

8:34 PM CST on November 19, 2017 (GMT -0600)
Menominee-Marinette Twin County

Weather History for KMNM - November, 2013

Change the Weather History Date:

Friday, November 29, 2013

  Actual Average Record
Temperature  
Mean Temperature 20 °F -  
Max Temperature 30 °F 35 °F 57 °F (1962)
Min Temperature 10 °F 21 °F -7 °F (1976)
Degree Days  
Heating Degree Days 45    
Moisture  
Dew Point 16 °F    
Average Humidity 77    
Maximum Humidity 100    
Minimum Humidity 59    
Precipitation  
Precipitation 0.04 in - - ()
Sea Level Pressure  
Sea Level Pressure 30.48 in    
Wind  
Wind Speed 5 mph (West)    
Max Wind Speed 14 mph    
Max Gust Speed 21 mph    
Visibility 10 miles    
Events      
Averages and records for this station are not official NWS values.
T = Trace of Precipitation, MM = Missing Value Source: NWS Daily Summary

Daily Weather History Graph

Daily Weather History Graph

Search for Another Location

Airport or City:

Trip Planner

Search our weather history database for the weather conditions in past years. The results will help you decide how hot, cold, wet, or windy it might be!

Date:

Astronomy

Nov. 29, 2013 Rise Set
Actual Time 7:06 AM CST 4:10 PM CST
Civil Twilight 6:33 AM CST 4:43 PM CST
Nautical Twilight 5:57 AM CST 5:20 PM CST
Astronomical Twilight 5:21 AM CST 5:55 PM CST
Moon 3:03 AM CST (11/29) 2:03 PM CST (11/29)
Length of Visible Light 10h 09m
Length of Day
9h 03m
Waning Crescent, 14% of the Moon is Illuminated
Nov 29
Waning Crescent
Dec 2
New
Dec 9
First Quarter
Dec 17
Full
Dec 25
Last Quarter

Hourly Weather History & Observations

Time (CST) Temp. Windchill Dew Point Humidity Pressure Visibility Wind Dir Wind Speed Gust Speed Precip Events Conditions
12:15 AM 19.4 °F 11.5 °F 14.0 °F 80% 30.44 in 10.0 mi NNW 5.8 mph - N/A   Overcast
12:35 AM 19.4 °F 11.5 °F 14.0 °F 80% 30.45 in 10.0 mi NNW 5.8 mph - N/A   Overcast
12:55 AM 19.4 °F 11.5 °F 14.0 °F 80% 30.45 in 10.0 mi NNW 5.8 mph - N/A   Mostly Cloudy
1:15 AM 17.6 °F 10.7 °F 15.8 °F 93% 30.45 in 10.0 mi NNW 4.6 mph - N/A   Mostly Cloudy
1:35 AM 17.6 °F 10.7 °F 15.8 °F 93% 30.46 in 10.0 mi NNW 4.6 mph - N/A   Mostly Cloudy
1:55 AM 17.6 °F 8.2 °F 15.8 °F 93% 30.47 in 10.0 mi NW 6.9 mph - N/A   Mostly Cloudy
2:15 AM 17.6 °F 10.7 °F 14.0 °F 86% 30.48 in 10.0 mi NNW 4.6 mph - N/A   Overcast
2:35 AM 15.8 °F 8.6 °F 10.4 °F 79% 30.48 in 10.0 mi NW 4.6 mph - N/A   Overcast
2:55 AM 15.8 °F 8.6 °F 10.4 °F 79% 30.48 in 10.0 mi NNW 4.6 mph - N/A   Overcast
3:15 AM 15.8 °F 7.2 °F 12.2 °F 86% 30.49 in 10.0 mi NNW 5.8 mph - N/A   Scattered Clouds
3:35 AM 15.8 °F 8.6 °F 12.2 °F 86% 30.49 in 10.0 mi NW 4.6 mph - N/A   Clear
3:55 AM 14.0 °F 6.5 °F 12.2 °F 93% 30.49 in 10.0 mi NW 4.6 mph - N/A   Clear
4:15 AM 12.2 °F 6.1 °F 12.2 °F 100% 30.49 in 10.0 mi NW 3.5 mph - N/A   Clear
4:35 AM 12.2 °F 4.3 °F 10.4 °F 92% 30.50 in 10.0 mi NW 4.6 mph - N/A   Clear
4:55 AM 12.2 °F 6.1 °F 8.6 °F 85% 30.50 in 10.0 mi NW 3.5 mph - N/A   Clear
5:15 AM 12.2 °F 6.1 °F 8.6 °F 85% 30.50 in 10.0 mi NW 3.5 mph - N/A   Clear
5:35 AM 12.2 °F 6.1 °F 8.6 °F 85% 30.51 in 10.0 mi NNW 3.5 mph - N/A   Clear
5:55 AM 10.4 °F 4.0 °F 10.4 °F 100% 30.52 in 10.0 mi NW 3.5 mph - N/A   Clear
6:15 AM 10.4 °F - 10.4 °F 100% 30.53 in 10.0 mi Calm Calm - N/A   Clear
6:35 AM 10.4 °F 2.2 °F 10.4 °F 100% 30.53 in 10.0 mi NW 4.6 mph - N/A   Clear
6:55 AM 10.4 °F 2.2 °F 10.4 °F 100% 30.54 in 10.0 mi NW 4.6 mph - N/A   Clear
7:15 AM 10.4 °F 4.0 °F 6.8 °F 85% 30.54 in 10.0 mi NW 3.5 mph - N/A   Clear
7:35 AM 10.4 °F 2.2 °F 8.6 °F 92% 30.55 in 10.0 mi NW 4.6 mph - N/A   Clear
7:55 AM 12.2 °F 6.1 °F 8.6 °F 85% 30.56 in 10.0 mi NW 3.5 mph - N/A   Clear
8:15 AM 14.0 °F 8.2 °F 10.4 °F 86% 30.56 in 10.0 mi NW 3.5 mph - N/A   Clear
8:35 AM 14.0 °F - 12.2 °F 93% 30.57 in 10.0 mi Calm Calm - N/A   Clear
8:55 AM 15.8 °F 8.6 °F 15.8 °F 100% 30.57 in 10.0 mi NNW 4.6 mph - N/A   Clear
9:15 AM 17.6 °F 10.7 °F 15.8 °F 93% 30.57 in 10.0 mi NW 4.6 mph - N/A   Clear
9:35 AM 19.4 °F 14.3 °F 12.2 °F 74% 30.57 in 10.0 mi NNW 3.5 mph - N/A   Clear
9:55 AM 21.2 °F 16.4 °F 15.8 °F 80% 30.58 in 10.0 mi West 3.5 mph - N/A   Clear
10:15 AM 21.2 °F 16.4 °F 15.8 °F 80% 30.58 in 10.0 mi NNW 3.5 mph - N/A   Clear
10:35 AM 21.2 °F 16.4 °F 15.8 °F 80% 30.57 in 10.0 mi NNW 3.5 mph - N/A   Clear
10:55 AM 23.0 °F 18.4 °F 15.8 °F 74% 30.57 in 10.0 mi NW 3.5 mph - N/A   Clear
11:15 AM 24.8 °F 20.5 °F 17.6 °F 74% 30.56 in 10.0 mi West 3.5 mph - N/A   Clear
11:35 AM 24.8 °F 17.9 °F 17.6 °F 74% 30.55 in 10.0 mi SW 5.8 mph - N/A   Partly Cloudy
11:55 AM 26.6 °F 19.1 °F 15.8 °F 64% 30.55 in 10.0 mi SW 6.9 mph - N/A   Partly Cloudy
12:15 PM 26.6 °F 21.2 °F 17.6 °F 69% 30.54 in 10.0 mi SW 4.6 mph - N/A   Scattered Clouds
12:35 PM 26.6 °F 21.2 °F 17.6 °F 69% 30.53 in 10.0 mi SSW 4.6 mph - N/A   Partly Cloudy
12:55 PM 28.4 °F 24.6 °F 19.4 °F 69% 30.52 in 10.0 mi SSW 3.5 mph - N/A   Clear
1:15 PM 28.4 °F 22.2 °F 15.8 °F 59% 30.52 in 10.0 mi SW 5.8 mph - N/A   Mostly Cloudy
1:35 PM 28.4 °F 22.2 °F 15.8 °F 59% 30.51 in 10.0 mi WSW 5.8 mph - N/A   Mostly Cloudy
1:55 PM 28.4 °F 23.3 °F 15.8 °F 59% 30.51 in 10.0 mi SW 4.6 mph - N/A   Mostly Cloudy
2:15 PM 28.4 °F 23.3 °F 15.8 °F 59% 30.50 in 10.0 mi SSW 4.6 mph - N/A   Partly Cloudy
2:35 PM 28.4 °F 21.2 °F 17.6 °F 64% 30.51 in 10.0 mi SSW 6.9 mph - N/A   Clear
2:55 PM 26.6 °F 18.2 °F 15.8 °F 64% 30.50 in 10.0 mi SW 8.1 mph - N/A   Clear
3:15 PM 26.6 °F 19.1 °F 15.8 °F 64% 30.50 in 10.0 mi SSW 6.9 mph - N/A   Clear
3:35 PM 26.6 °F 20.0 °F 17.6 °F 69% 30.49 in 10.0 mi South 5.8 mph - 0.04 in   Mostly Cloudy
3:55 PM 26.6 °F 18.2 °F 17.6 °F 69% 30.48 in 10.0 mi SSW 8.1 mph - 0.04 in   Overcast
4:15 PM 26.6 °F 19.1 °F 15.8 °F 64% 30.48 in 10.0 mi SSW 6.9 mph - N/A   Mostly Cloudy
4:35 PM 26.6 °F 20.0 °F 15.8 °F 64% 30.47 in 10.0 mi SSW 5.8 mph - N/A   Mostly Cloudy
4:55 PM 26.6 °F 22.6 °F 15.8 °F 64% 30.47 in 10.0 mi SSW 3.5 mph - N/A   Mostly Cloudy
5:15 PM 26.6 °F - 17.6 °F 69% 30.46 in 10.0 mi Calm Calm - N/A   Overcast
5:35 PM 26.6 °F 21.2 °F 15.8 °F 64% 30.46 in 10.0 mi SSW 4.6 mph - N/A   Mostly Cloudy
5:55 PM 26.6 °F 22.6 °F 15.8 °F 64% 30.45 in 10.0 mi South 3.5 mph - N/A   Mostly Cloudy
6:15 PM 26.6 °F 20.0 °F 17.6 °F 69% 30.45 in 10.0 mi South 5.8 mph - N/A   Scattered Clouds
6:35 PM 26.6 °F 21.2 °F 17.6 °F 69% 30.45 in 10.0 mi South 4.6 mph - N/A   Partly Cloudy
6:55 PM 26.6 °F 19.1 °F 15.8 °F 64% 30.44 in 10.0 mi South 6.9 mph - N/A   Partly Cloudy
7:15 PM 26.6 °F 19.1 °F 17.6 °F 69% 30.44 in 10.0 mi South 6.9 mph - N/A   Clear
7:35 PM 26.6 °F 16.2 °F 19.4 °F 74% 30.42 in 10.0 mi SSW 11.5 mph 16.1 mph N/A   Clear
7:55 PM 26.6 °F 16.8 °F 19.4 °F 74% 30.40 in 10.0 mi South 10.4 mph - N/A   Clear
8:15 PM 28.4 °F 19.7 °F 19.4 °F 69% 30.39 in 10.0 mi SSW 9.2 mph - N/A   Clear
8:35 PM 28.4 °F 18.0 °F 19.4 °F 69% 30.39 in 10.0 mi SSW 12.7 mph 17.3 mph N/A   Clear
8:55 PM 28.4 °F 19.1 °F 19.4 °F 69% 30.38 in 10.0 mi SW 10.4 mph - N/A   Clear
9:15 PM 28.4 °F 19.7 °F 19.4 °F 69% 30.38 in 10.0 mi SSW 9.2 mph - N/A   Mostly Cloudy
9:35 PM 28.4 °F 20.4 °F 21.2 °F 74% 30.37 in 10.0 mi SSW 8.1 mph - N/A   Overcast
9:55 PM 28.4 °F 22.2 °F 21.2 °F 74% 30.36 in 10.0 mi SW 5.8 mph - N/A   Mostly Cloudy
10:15 PM 28.4 °F 21.2 °F 21.2 °F 74% 30.35 in 10.0 mi SSW 6.9 mph - N/A   Overcast
10:35 PM 28.4 °F 19.7 °F 23.0 °F 80% 30.34 in 10.0 mi SSW 9.2 mph - N/A   Scattered Clouds
10:55 PM 30.2 °F 21.9 °F 23.0 °F 75% 30.34 in 10.0 mi SW 9.2 mph - N/A   Clear
11:15 PM 30.2 °F 21.9 °F 23.0 °F 75% 30.33 in 10.0 mi SW 9.2 mph - N/A   Clear
11:35 PM 30.2 °F 20.2 °F 24.8 °F 80% 30.32 in 10.0 mi SW 12.7 mph - N/A   Mostly Cloudy
11:55 PM 30.2 °F 19.8 °F 24.8 °F 80% 30.31 in 10.0 mi SW 13.8 mph 20.7 mph N/A   Overcast